• In Deutschland
  • Länderverzeichnis
  • Für 7 Tage
  • Wassertemperatur
  • Satellitenkarten
  • Wetterkarte
  • Widgets
  • user-avatar
    Anmelden

    Stündliche Wetter Arkadia

    Heute, 22 Februar, Donnerstag

    Zeit Temperatur Niederschläge Wind Luftdruck Luftfeuchtigkeit
    00:00 +4°C° 0,1 mm 1 m/S 657 mmHg 93%
    01:00 +4°C° 0 mm 1 m/S 657 mmHg 93%
    02:00 +4°C° 0 mm 1 m/S 657 mmHg 93%
    03:00 +3°C° 0 mm 1 m/S 657 mmHg 93%
    04:00 +3°C° 0 mm 1 m/S 657 mmHg 92%
    05:00 +3°C° 0 mm 1 m/S 657 mmHg 92%
    06:00 +3°C° 0 mm 1 m/S 657 mmHg 91%
    07:00 +4°C° 0 mm 1 m/S 657 mmHg 90%
    08:00 +6°C° 0 mm 1 m/S 658 mmHg 83%
    09:00 +7°C° 0 mm 1 m/S 659 mmHg 76%
    10:00 +9°C° 0 mm 1 m/S 659 mmHg 69%
    11:00 +9°C° 0 mm 1 m/S 659 mmHg 67%
    12:00 +10°C° 0 mm 1 m/S 659 mmHg 65%
    13:00 +10°C° 0 mm 1 m/S 659 mmHg 63%
    14:00 +10°C° 0,1 mm 1 m/S 659 mmHg 66%
    15:00 +9°C° 0,1 mm 1 m/S 659 mmHg 68%
    16:00 +9°C° 0,1 mm 1 m/S 659 mmHg 71%
    17:00 +8°C° 0,1 mm 1 m/S 659 mmHg 77%
    18:00 +6°C° 0,1 mm 1 m/S 659 mmHg 82%
    19:00 +4°C° 0,1 mm 0 m/S 659 mmHg 88%
    20:00 +5°C° 0 mm 1 m/S 659 mmHg 88%
    21:00 +5°C° 0 mm 1 m/S 659 mmHg 89%
    22:00 +4°C° 0 mm 1 m/S 659 mmHg 90%
    23:00 +4°C° 0 mm 1 m/S 659 mmHg 91%

    Morgen, 23 Februar, Freitag

    Zeit Temperatur Niederschläge Wind Luftdruck Luftfeuchtigkeit
    00:00 +4°C° 0 mm 1 m/S 659 mmHg 91%
    01:00 +4°C° 0 mm 1 m/S 659 mmHg 92%
    02:00 +4°C° 0 mm 1 m/S 659 mmHg 92%
    03:00 +4°C° 0 mm 1 m/S 658 mmHg 93%
    04:00 +2°C° 0 mm 2 m/S 658 mmHg 93%
    05:00 +3°C° 0 mm 2 m/S 658 mmHg 93%
    06:00 +3°C° 0 mm 2 m/S 658 mmHg 93%
    07:00 +3°C° 0 mm 2 m/S 659 mmHg 93%
    08:00 +5°C° 0 mm 2 m/S 659 mmHg 86%
    09:00 +6°C° 0 mm 2 m/S 660 mmHg 80%
    10:00 +8°C° 0 mm 2 m/S 660 mmHg 73%
    11:00 +8°C° 0 mm 2 m/S 660 mmHg 71%
    12:00 +8°C° 0 mm 2 m/S 660 mmHg 69%
    13:00 +9°C° 0 mm 2 m/S 660 mmHg 66%
    14:00 +8°C° 0,1 mm 2 m/S 660 mmHg 68%
    15:00 +8°C° 0,1 mm 2 m/S 660 mmHg 70%
    16:00 +8°C° 0,1 mm 2 m/S 659 mmHg 72%
    17:00 +7°C° 0 mm 2 m/S 659 mmHg 78%
    18:00 +5°C° 0 mm 2 m/S 659 mmHg 84%
    19:00 +4°C° 0 mm 2 m/S 659 mmHg 89%
    20:00 +4°C° 0,1 mm 2 m/S 659 mmHg 90%
    21:00 +4°C° 0,1 mm 2 m/S 659 mmHg 90%
    22:00 +3°C° 0,1 mm 3 m/S 659 mmHg 90%
    23:00 +3°C° 0 mm 3 m/S 658 mmHg 90%

    übermorgen, 24 Februar, Samstag

    Zeit Temperatur Niederschläge Wind Luftdruck Luftfeuchtigkeit
    00:00 +3°C° 0 mm 3 m/S 658 mmHg 90%
    01:00 +3°C° 0 mm 3 m/S 658 mmHg 90%
    02:00 +3°C° 0,9 mm 3 m/S 657 mmHg 91%
    03:00 +3°C° 0,9 mm 3 m/S 657 mmHg 92%
    04:00 +3°C° 0,9 mm 3 m/S 657 mmHg 93%
    05:00 +3°C° 4,4 mm 3 m/S 657 mmHg 94%
    06:00 +4°C° 4,4 mm 2 m/S 657 mmHg 95%
    07:00 +4°C° 4,4 mm 1 m/S 657 mmHg 96%
    08:00 +4°C° 2,5 mm 2 m/S 657 mmHg 94%
    09:00 +4°C° 2,5 mm 2 m/S 657 mmHg 92%
    10:00 +4°C° 2,5 mm 2 m/S 657 mmHg 89%
    11:00 +4°C° 0,9 mm 3 m/S 657 mmHg 88%
    12:00 +4°C° 0,9 mm 3 m/S 657 mmHg 86%
    13:00 +4°C° 0,9 mm 3 m/S 657 mmHg 84%
    14:00 +4°C° 0,6 mm 3 m/S 657 mmHg 85%
    15:00 +4°C° 0,6 mm 3 m/S 657 mmHg 86%
    16:00 +4°C° 0,6 mm 2 m/S 657 mmHg 87%
    17:00 +4°C° 0,5 mm 2 m/S 657 mmHg 89%
    18:00 +4°C° 0,5 mm 2 m/S 657 mmHg 91%
    19:00 +3°C° 0,5 mm 2 m/S 657 mmHg 93%
    20:00 +3°C° 0,4 mm 2 m/S 658 mmHg 93%
    21:00 +3°C° 0,4 mm 2 m/S 658 mmHg 93%
    22:00 +4°C° 0,4 mm 1 m/S 658 mmHg 94%
    23:00 +4°C° 0,3 mm 1 m/S 658 mmHg 94%

    25 Februar, Sonntag

    Zeit Temperatur Niederschläge Wind Luftdruck Luftfeuchtigkeit
    00:00 +4°C° 0,3 mm 1 m/S 659 mmHg 94%
    01:00 +4°C° 0,3 mm 1 m/S 659 mmHg 94%
    02:00 +4°C° 0,1 mm 1 m/S 659 mmHg 94%
    03:00 +3°C° 0,1 mm 1 m/S 658 mmHg 94%
    04:00 +3°C° 0,1 mm 1 m/S 658 mmHg 94%
    05:00 +3°C° 0 mm 1 m/S 658 mmHg 94%
    06:00 +3°C° 0 mm 1 m/S 659 mmHg 93%
    07:00 +3°C° 0 mm 1 m/S 659 mmHg 93%
    08:00 +4°C° 0 mm 1 m/S 660 mmHg 87%
    09:00 +6°C° 0 mm 1 m/S 660 mmHg 81%
    10:00 +7°C° 0 mm 1 m/S 661 mmHg 76%
    11:00 +7°C° 0,1 mm 1 m/S 661 mmHg 76%
    12:00 +6°C° 0,1 mm 2 m/S 660 mmHg 77%
    13:00 +6°C° 0,1 mm 2 m/S 660 mmHg 77%
    14:00 +6°C° 0,4 mm 2 m/S 660 mmHg 80%
    15:00 +5°C° 0,4 mm 2 m/S 660 mmHg 83%
    16:00 +5°C° 0,4 mm 2 m/S 660 mmHg 86%
    17:00 +5°C° 0,5 mm 2 m/S 660 mmHg 89%
    18:00 +5°C° 0,5 mm 1 m/S 660 mmHg 91%
    19:00 +5°C° 0,5 mm 1 m/S 660 mmHg 93%
    20:00 +4°C° 0,4 mm 2 m/S 660 mmHg 93%
    21:00 +3°C° 0,4 mm 2 m/S 660 mmHg 94%
    22:00 +3°C° 0,4 mm 2 m/S 659 mmHg 94%
    23:00 +3°C° 0,1 mm 2 m/S 659 mmHg 94%

    26 Februar, Montag

    Zeit Temperatur Niederschläge Wind Luftdruck Luftfeuchtigkeit
    00:00 +3°C° 0,1 mm 2 m/S 658 mmHg 94%
    01:00 +3°C° 0,1 mm 2 m/S 658 mmHg 94%
    02:00 +3°C° 0,2 mm 2 m/S 657 mmHg 94%
    03:00 +2°C° 0,2 mm 3 m/S 657 mmHg 94%
    04:00 +2°C° 0,2 mm 3 m/S 656 mmHg 93%
    05:00 +2°C° 0,8 mm 3 m/S 656 mmHg 94%
    06:00 +2°C° 0,8 mm 3 m/S 656 mmHg 94%
    07:00 +1°C° 0,8 mm 4 m/S 655 mmHg 94%
    08:00 +1°C° 4,5 mm 4 m/S 655 mmHg 94%
    09:00 +1°C° 4,5 mm 4 m/S 655 mmHg 94%
    10:00 +3°C° 4,5 mm 4 m/S 655 mmHg 94%
    11:00 +3°C° 0,9 mm 4 m/S 655 mmHg 88%
    12:00 +3°C° 0,9 mm 5 m/S 655 mmHg 82%
    13:00 +5°C° 0,9 mm 5 m/S 654 mmHg 76%
    14:00 +3°C° 0,4 mm 5 m/S 654 mmHg 77%
    15:00 +4°C° 0,4 mm 4 m/S 654 mmHg 78%
    16:00 +3°C° 0,4 mm 4 m/S 654 mmHg 79%
    17:00 +3°C° 0,3 mm 4 m/S 655 mmHg 82%
    18:00 +2°C° 0,3 mm 3 m/S 655 mmHg 84%
    19:00 +1°C° 0,3 mm 3 m/S 655 mmHg 87%
    20:00 +1°C° 0,2 mm 3 m/S 655 mmHg 87%
    21:00 +1°C° 0,2 mm 3 m/S 655 mmHg 87%
    22:00 +1°C° 0,2 mm 3 m/S 655 mmHg 87%
    23:00 +1°C° 0,8 mm 3 m/S 655 mmHg 88%

    27 Februar, Dienstag

    Zeit Temperatur Niederschläge Wind Luftdruck Luftfeuchtigkeit
    00:00 +1°C° 0,8 mm 3 m/S 655 mmHg 89%
    01:00 0°C° 0,8 mm 4 m/S 655 mmHg 90%
    02:00 +1°C° 0,6 mm 4 m/S 655 mmHg 89%
    03:00 +1°C° 0,6 mm 4 m/S 655 mmHg 89%
    04:00 +1°C° 0,6 mm 5 m/S 655 mmHg 88%
    05:00 +1°C° 0,2 mm 5 m/S 655 mmHg 87%
    06:00 +1°C° 0,2 mm 5 m/S 656 mmHg 86%
    07:00 +1°C° 0,2 mm 5 m/S 656 mmHg 85%
    08:00 +2°C° 0,1 mm 5 m/S 656 mmHg 80%
    09:00 +3°C° 0,1 mm 6 m/S 657 mmHg 76%
    10:00 +4°C° 0,1 mm 6 m/S 658 mmHg 71%
    11:00 +4°C° 0 mm 6 m/S 658 mmHg 67%
    12:00 +5°C° 0 mm 6 m/S 658 mmHg 63%
    13:00 +7°C° 0 mm 6 m/S 658 mmHg 59%
    14:00 +5°C° 0,1 mm 6 m/S 658 mmHg 63%
    15:00 +6°C° 0,1 mm 5 m/S 658 mmHg 67%
    16:00 +6°C° 0,1 mm 4 m/S 658 mmHg 70%
    17:00 +5°C° 0,1 mm 3 m/S 658 mmHg 75%
    18:00 +4°C° 0,1 mm 3 m/S 658 mmHg 80%
    19:00 +5°C° 0,1 mm 2 m/S 658 mmHg 85%
    20:00 +4°C° 0,3 mm 2 m/S 658 mmHg 87%
    21:00 +4°C° 0,3 mm 2 m/S 658 mmHg 89%
    22:00 +4°C° 0,3 mm 2 m/S 658 mmHg 90%
    23:00 +4°C° 1,3 mm 2 m/S 658 mmHg 91%
    Mehr zeigen